Tracking 19709 objects as of 17-Jun-2019
HD Live streaming from Space Station
objects crossing your sky now

METEOR 2-8 DEB

Track METEOR 2-8 DEB now!
10-day predictions


NORAD ID: 36327
Int'l Code: 1982-025M
Perigee: 885.9 km
Apogee: 887.5 km
Inclination: 82.5 °
Period: 102.6 minutes
Semi major axis: 7257 km
RCS: 0.0052 m2 (small)
Launch date: March 25, 1982
Source: Commonwealth of Independent States (former USSR) (CIS)
Launch site: PLESETSK MISSILE AND SPACE COMPLEX (PKMTR)

Note: This is SATELLITE DEBRIS
aabbcc
Your satellite tracking list
Your tracking list is empty




NASA's NSSDC Master Catalog

Two Line Element Set (TLE):
1 36327U 82025M   19161.48591952 -.00000041 +00000-0 -35778-4 0  9990
2 36327 082.5183 228.8415 0001099 197.0211 163.0923 14.04112314776533
Source of the keplerian elements: AFSPC